METEOR 2-17 DEB, 35371

Orbit data source: Space-Track

METEOR 2-17 DEB, 35371 is space debris in LEO originally from a launch on Sat, 30 Jan 1988 UTC launched from the Plesetsk Missile And Space Complex (PKMTR). Debris objects in space refer to the collection of defunct objects orbiting the Earth. Examples of debris include non-operational satellites, rocket bodies, and fragments generated from explosions, collisions, or faulty payload assembly.

Loading next visibility...
Identifier
35371, 1988-005AF
Orbit
LEO
Country
Flag of CISCIS
Related business
Manufacturer
Unknown
Mission
Spacecraft
Bus & Motor
Unknown
Mass
Unknown
Launch date (UTC)
1988-01-30 (38 years ago)
Launch vehicle
Unknown
Launch site
Plesetsk Missile And Space Complex (PKMTR)
Object type
Payload
Rocket body
Debris
Shape & HBR
Unknown shape, 0.1 m
Radar Cross Section
Small (<0.1 m²)

Expand to show TLE details & history
Last TLE update: 1 week ago

TLE from 1 week ago
0 METEOR 2-17 DEB
1 35371U 88005AF  25297.11195033  .00002422  00000-0  15097-2 0  9992
2 35371  82.5098  65.2037 0019492 177.0284 183.1007 14.04401909627366
Epoch: 2025-10-24T02:41Z
TLE epoch observation values (Epoch: 2025-10-24T02:41:12.508Z)
Latitude
-0.00002°
Longitude
-7.85995°
Altitude
895.648 km
Speed
7.397 km/s
True Right ascension
04h 20m 48s
True Declination
0° 00' 00"
Sunlit
Object was in full shadow at epoch
Visualization orbit readout
Latitude
Unknown
Longitude
Unknown
Altitude
Unknown
Speed
Unknown
Apparent Right ascension
Unknown
Apparent Declination
Unknown
Sunlit
N/A
Visualization observer readout
Local Sidereal Time
07:35:50
Azimuth
Unknown
Elevation
Unknown
Doppler factor
Unknown
Orbital elements
Apogee altitude
889.857 km
Perigee altitude
861.578 km
Semi-major axis
7,253.854 km
Eccentricity
0.00195
Inclination
82.5098°
RAAN
65.2037°
Arg. of periapsis
177.0284°
True anomaly
183.08865°
Mean anomaly
183.1007°
Eccentric anomaly
183.09467°
Mean motion
3.5131 °/min
Orbital period
102.47 mins
BSTAR
0.0015097
Loading maneuver chart data...
Computing Atmospheric mass density...
Loading historical data...
Loading historical data...
Loading historical data...
Loading historical data...
Loading historical data...
Loading historical data...
Loading historical data...

Documentation

Showing up to 5 results
|